Theta_e
320 320 321 321 320 321 321 322 322 322 322 322 322 323 324 324 325 325 325 326 326 327 327 327 326 325 325 322 325 332 329 324 321 319 318 321 330 333 333 332 332 331 327 316 311 309 307 308 308 312 311 310 307 308 309 310 307 307 300 295 294 293 293 296 296 295 295 297 296 295 299 302 299 300 304 308 309 306 309 311 311 312 314 315 317 318 321 323
320 320 320 320 320 321 321 322 322 322 322 322 322 323 324 324 325 325 325 326 326 327 327 326 326 325 323 321 323 331 328 324 318 318 317 328 331 333 331 333 333 330 328 318 308 306 305 306 307 309 308 305 309 307 310 307 308 302 295 295 296 293 297 298 297 297 296 298 296 297 296 302 302 302 302 305 303 307 309 309 308 312 314 316 318 320 320 323
320 318 319 320 320 320 320 320 321 321 322 322 322 322 324 324 325 325 325 326 327 327 327 326 324 323 322 321 327 329 320 314 310 306 315 330 331 332 332 334 333 329 324 318 317 314 307 307 308 308 307 305 307 304 307 304 305 300 300 295 296 297 297 297 295 297 296 296 296 297 297 298 301 302 302 304 301 303 306 306 307 309 312 313 314 318 320 322
319 319 318 319 320 319 319 320 320 321 322 322 322 322 324 324 325 325 325 326 326 327 327 326 324 323 323 321 328 322 314 310 303 308 318 333 332 333 331 333 333 330 323 321 319 316 313 311 309 309 306 306 306 306 303 305 303 301 299 298 298 298 299 298 295 296 295 296 296 297 295 298 298 301 304 301 304 303 304 305 309 309 311 312 314 317 319 320
320 319 319 318 320 320 318 320 320 321 322 322 322 322 323 324 324 325 325 325 326 327 327 326 324 323 324 324 327 320 308 300 303 312 319 334 335 333 332 335 333 328 324 319 317 316 313 310 308 309 307 301 305 304 302 304 306 302 302 301 300 297 300 298 295 292 292 292 296 294 299 299 298 300 300 303 302 301 305 308 307 309 311 313 315 317 318 319
320 320 320 319 319 319 319 319 320 321 321 322 322 322 323 324 324 324 325 325 326 327 327 327 325 323 324 326 325 314 303 287 317 320 332 335 335 335 333 335 333 326 323 318 314 314 312 307 308 305 302 302 302 301 301 303 304 300 300 299 298 296 300 295 291 291 293 294 296 295 299 297 300 298 297 303 303 303 303 304 308 308 310 316 318 317 317 318
319 320 319 319 319 318 319 319 319 320 322 322 322 321 322 323 323 324 324 324 325 326 327 327 326 324 324 326 321 310 301 304 318 323 334 332 335 335 331 331 331 323 322 314 312 310 309 308 306 303 302 302 302 301 302 303 304 303 301 300 301 295 297 292 293 290 290 295 296 297 295 298 296 300 295 300 304 302 300 297 297 303 314 318 317 317 318 318
319 319 319 318 319 318 318 318 319 320 320 321 322 322 323 323 323 323 323 324 325 326 326 327 325 324 324 317 311 305 301 300 322 329 334 335 334 334 332 328 326 322 318 314 311 309 309 307 305 306 303 302 302 303 303 303 302 301 300 300 298 296 296 291 290 290 290 292 293 293 297 297 298 298 295 298 303 301 299 302 305 312 315 316 317 316 318 318
317 318 318 319 318 318 318 317 319 320 320 320 320 322 322 323 323 323 323 323 324 326 325 326 325 323 324 316 308 302 301 309 324 332 332 329 326 325 325 321 325 321 316 315 314 311 309 308 308 307 301 303 304 303 301 303 299 300 302 300 296 296 294 292 293 291 292 293 293 296 295 295 295 296 296 299 298 297 296 308 311 313 314 314 316 317 317 317
317 319 319 318 317 317 318 317 318 319 320 319 320 322 322 322 323 322 322 323 324 325 326 326 325 322 317 313 308 298 306 316 327 331 329 326 325 324 323 321 322 320 316 314 313 312 308 309 307 311 308 306 304 304 302 302 302 302 301 300 299 300 294 297 295 294 292 296 294 296 294 296 296 296 298 298 298 301 305 307 310 312 313 314 316 316 317 317
317 319 318 318 317 318 318 318 318 319 318 318 319 321 322 322 322 322 322 323 324 325 326 326 326 321 312 313 304 298 315 315 323 328 328 327 324 323 320 319 320 317 316 314 311 313 313 312 312 315 310 306 306 303 302 302 304 303 302 301 301 301 297 298 293 294 295 298 293 296 294 295 297 296 298 300 297 302 301 304 308 310 312 314 315 316 317 317
318 318 318 317 317 318 318 318 318 318 319 318 318 320 321 322 322 322 322 323 323 325 325 325 325 319 315 310 306 303 317 317 317 325 327 326 324 324 321 321 319 317 315 312 312 314 314 314 315 311 304 310 304 303 303 304 304 302 304 301 300 301 303 301 296 296 295 296 296 296 297 295 295 295 299 299 295 301 299 303 306 309 310 312 314 315 316 317
316 317 318 317 317 318 318 318 319 319 319 318 319 321 321 322 322 321 322 322 323 324 325 325 323 317 312 303 308 313 319 316 316 322 324 325 323 323 323 321 321 319 318 315 313 314 315 315 315 308 311 308 304 305 306 305 302 304 303 300 300 300 299 303 298 295 295 297 294 296 291 295 296 299 299 300 297 299 299 301 305 308 309 310 312 314 316 317
315 317 317 317 316 317 317 317 318 318 318 318 320 321 321 321 321 321 322 321 323 324 325 325 319 314 309 304 315 319 322 317 316 318 319 323 320 318 319 320 321 321 320 317 315 316 315 316 313 309 312 308 304 310 307 303 302 302 300 302 297 296 296 300 300 295 296 297 295 300 292 295 296 297 301 301 299 300 300 300 300 304 307 309 310 313 315 316
315 316 317 316 316 316 317 316 317 318 318 318 319 320 320 320 321 320 322 321 322 323 324 322 319 312 303 306 315 318 325 318 312 313 318 317 317 315 315 318 317 318 318 318 315 316 316 315 313 308 307 309 307 305 300 298 296 299 300 296 294 297 296 296 299 298 301 299 296 299 292 295 299 303 302 299 298 299 300 300 300 300 304 307 309 311 313 315
315 315 316 316 317 316 317 316 316 317 317 318 320 320 319 320 320 320 320 321 322 323 317 313 313 311 304 301 309 325 318 309 310 315 318 317 316 313 316 316 317 317 317 317 320 319 316 314 307 307 307 308 306 302 300 300 299 297 299 294 296 293 296 298 300 296 301 297 299 299 295 296 299 300 297 294 298 298 300 300 300 300 300 303 307 309 311 313
314 315 316 316 316 317 316 316 315 316 316 318 320 319 318 318 320 319 319 319 316 316 315 309 312 312 295 309 318 311 309 311 319 318 318 319 318 317 316 314 313 314 317 317 317 316 314 308 309 308 307 304 304 303 297 296 294 296 296 296 295 296 295 294 297 298 298 297 296 297 296 298 297 298 297 296 296 297 298 299 300 300 300 302 304 308 310 311
314 314 314 316 317 316 316 316 316 316 316 318 317 317 314 317 318 318 315 312 311 312 315 316 312 305 299 310 300 306 313 313 316 318 319 320 320 318 316 312 312 313 314 311 313 309 311 305 308 300 302 302 302 301 296 291 295 295 296 295 296 295 294 296 297 299 298 298 296 296 295 298 299 300 300 299 295 297 299 300 301 301 301 300 302 305 308 310
315 314 314 316 316 316 316 316 316 316 317 319 318 317 317 314 307 306 307 310 304 298 294 297 299 288 287 299 307 312 312 316 318 317 313 317 319 319 317 316 313 310 304 305 304 308 307 304 303 300 295 298 299 301 299 300 302 298 299 298 297 296 293 295 297 297 298 297 296 296 296 298 299 300 302 304 295 296 299 298 297 298 298 298 299 301 305 307
315 315 315 315 316 316 314 316 316 317 317 311 307 305 304 300 298 296 304 304 299 298 296 299 302 301 302 306 303 313 317 319 311 313 315 318 316 314 312 312 308 309 304 299 302 305 306 297 294 294 297 299 301 302 303 301 303 301 299 298 297 296 294 293 296 298 298 296 296 297 298 299 300 301 302 304 301 295 296 298 300 299 299 299 298 299 301 304
313 315 315 314 315 315 314 316 317 317 314 307 306 302 294 295 289 287 297 301 302 301 299 302 303 300 301 307 310 310 307 308 312 311 313 319 315 311 306 308 304 299 301 303 301 306 305 295 293 297 300 302 302 303 301 302 302 300 299 297 296 295 297 295 297 295 296 297 294 295 296 297 299 301 302 301 299 301 301 301 302 302 302 303 302 302 301 301
314 314 313 315 315 315 316 316 317 317 313 307 305 299 298 299 298 304 299 291 298 301 301 301 303 302 307 310 310 312 311 305 306 310 315 316 310 303 304 303 300 296 302 302 302 299 296 293 296 299 302 303 302 302 302 301 299 300 299 296 294 295 292 294 292 292 294 296 295 291 292 296 298 299 301 300 301 303 304 303 304 304 304 303 303 303 303 302
313 313 313 316 315 315 314 316 315 316 307 304 301 300 297 302 302 303 298 292 290 298 299 299 298 302 302 307 310 311 303 301 300 307 310 313 306 304 305 300 298 298 300 300 295 295 292 295 300 303 302 301 301 301 301 299 298 297 296 295 294 291 295 291 293 289 294 295 291 287 290 294 297 296 298 301 302 303 305 304 304 304 304 304 305 304 303 302
313 314 313 314 315 314 314 315 317 310 303 305 303 301 301 303 303 300 295 284 285 293 297 299 300 302 302 300 309 307 304 304 306 304 314 310 303 306 303 301 298 298 296 299 298 296 294 299 304 302 300 300 299 300 300 298 296 295 298 295 292 290 294 293 293 288 290 292 291 291 293 296 300 299 298 298 299 300 302 301 302 303 304 305 306 304 304 304
312 313 313 314 314 314 313 315 309 304 306 305 303 304 304 305 304 300 294 289 287 287 298 298 301 302 305 307 309 304 305 305 307 311 313 310 304 304 301 304 300 294 298 299 299 297 297 301 303 300 299 299 299 297 298 299 296 294 297 298 296 293 292 288 290 291 289 291 291 292 288 291 293 294 298 301 296 297 299 298 299 301 302 302 302 303 304 303
312 312 312 312 313 313 313 306 304 306 304 301 304 304 304 305 303 301 291 277 274 285 294 287 302 295 311 303 308 306 306 297 308 311 312 311 312 305 303 299 301 293 298 298 297 298 298 302 301 299 298 298 298 297 298 299 296 294 295 296 296 295 291 290 289 294 290 289 291 291 291 289 295 296 294 293 293 297 298 295 299 300 301 301 301 302 303 303
313 312 313 312 312 313 305 298 307 306 299 301 306 306 305 305 304 299 290 279 275 287 287 296 294 294 305 304 306 304 288 293 309 311 310 312 306 311 298 297 299 301 302 301 296 293 300 300 299 299 298 297 296 295 298 300 296 293 295 297 295 293 292 292 292 294 289 289 290 287 291 288 289 296 299 295 292 295 297 297 297 299 299 300 301 301 302 303
312 312 313 312 312 312 305 307 304 301 301 304 308 306 305 303 303 298 286 272 270 293 287 290 294 306 302 305 307 298 301 307 298 303 311 311 310 304 301 297 296 297 300 299 286 299 300 297 298 297 298 297 295 298 299 301 296 292 294 298 296 295 293 291 292 286 287 289 290 286 289 289 288 293 290 290 295 297 299 301 301 299 299 299 300 301 301 302
311 311 311 312 312 312 309 306 304 301 306 307 307 305 304 304 300 288 280 270 288 283 304 290 307 300 301 305 301 301 301 303 296 305 310 310 310 303 296 299 299 299 301 299 292 295 300 301 300 300 298 295 299 299 301 301 296 295 295 295 293 292 291 292 287 289 288 288 288 288 290 288 290 296 292 291 291 295 299 299 299 300 301 300 300 300 300 300
312 311 311 311 311 308 305 306 303 306 308 307 305 305 305 301 292 281 274 267 288 277 291 296 294 292 301 295 296 299 297 300 302 306 307 303 306 308 303 306 300 298 297 299 297 296 300 302 303 302 299 300 299 302 303 301 299 299 298 295 292 289 287 285 286 285 288 286 288 291 290 292 288 295 296 293 296 300 300 298 299 298 298 297 297 299 299 299
312 312 311 311 304 305 304 299 303 307 307 306 304 303 300 294 282 276 270 276 288 288 296 292 289 300 295 293 290 297 297 300 299 301 298 304 301 303 302 299 301 296 293 294 294 297 298 300 301 299 303 301 304 298 299 301 299 298 291 290 293 289 288 285 286 289 285 286 288 293 289 291 287 290 294 299 294 291 297 298 297 298 298 298 296 296 296 297
311 311 311 309 308 308 300 298 305 308 306 304 302 297 292 279 283 273 272 289 277 286 288 287 294 293 294 295 292 294 292 296 299 299 295 297 295 295 296 290 294 286 286 287 287 293 293 296 299 299 302 304 300 299 295 296 298 297 294 295 290 284 287 285 287 284 284 284 287 285 289 286 289 297 292 289 294 296 293 296 298 297 296 295 295 295 295 295
311 311 311 310 309 304 304 306 307 307 305 304 299 295 284 278 270 278 279 279 274 290 287 294 291 292 293 291 289 294 297 291 299 299 297 296 296 296 298 297 296 293 284 288 287 287 289 295 298 298 300 304 303 295 291 291 294 297 295 292 288 284 283 282 284 286 285 286 286 286 289 288 289 295 300 301 303 303 300 296 296 296 297 297 298 298 296 295
311 311 307 308 307 306 307 307 307 306 303 302 296 287 283 274 274 286 280 280 278 291 293 289 291 292 292 287 288 294 288 295 297 296 296 293 296 292 295 297 297 292 290 289 286 286 283 284 292 297 293 303 303 300 298 296 295 297 299 296 290 289 283 280 283 281 282 282 284 288 288 285 288 293 291 294 296 297 298 295 295 295 296 296 296 293 293 293
310 308 307 307 306 306 307 306 306 306 302 298 290 283 275 274 281 278 279 279 279 286 290 293 289 289 288 289 291 294 294 289 297 296 294 293 291 293 292 293 296 296 293 286 288 287 287 288 294 302 297 304 301 303 303 299 295 296 296 297 291 289 285 283 278 282 279 281 281 284 288 288 293 294 295 295 294 296 296 295 292 293 293 292 292 294 296 296
308 304 307 303 303 305 307 306 305 304 300 293 285 278 276 280 277 283 281 287 284 286 290 290 289 286 286 286 290 291 296 291 295 295 293 294 294 292 296 296 295 297 292 288 291 285 287 286 295 300 297 301 302 302 301 303 289 294 297 291 294 292 287 281 280 281 280 280 283 287 286 290 291 299 302 302 301 299 297 295 293 294 294 291 292 294 295 295
301 303 300 302 303 305 307 306 306 303 298 291 283 278 283 283 283 283 289 287 285 292 290 282 283 284 283 282 286 289 291 292 293 292 288 295 291 294 294 296 299 297 298 295 288 290 287 287 294 297 294 301 299 303 302 302 300 297 291 295 294 295 291 287 282 275 275 279 282 286 287 287 286 289 289 297 300 302 302 297 293 291 289 290 295 295 295 295
300 300 302 300 303 305 305 305 304 301 295 288 281 284 286 283 286 285 287 288 287 291 288 286 286 289 283 284 284 288 292 289 289 292 287 293 288 299 295 295 299 298 299 299 293 290 294 286 291 294 297 296 299 301 297 297 297 298 297 301 295 286 287 286 284 279 277 279 277 276 281 283 290 293 291 291 294 296 296 293 288 291 291 292 293 293 293 292
301 298 292 299 305 305 305 305 302 297 291 282 281 281 284 285 286 284 287 290 290 290 288 288 285 286 286 284 286 290 291 286 291 288 288 288 287 296 296 297 295 299 300 299 294 292 294 287 288 293 295 295 297 298 289 293 296 296 300 298 295 292 290 288 287 282 281 281 273 278 276 284 290 295 296 297 295 293 289 289 292 292 292 291 291 292 292 292
296 291 290 301 304 306 305 304 297 293 287 281 282 282 286 285 287 289 285 289 287 290 286 287 286 286 286 286 288 286 291 290 290 289 290 292 291 298 296 299 296 297 299 300 295 298 291 291 285 289 293 297 291 295 293 295 290 290 294 291 291 291 289 289 287 288 284 282 278 279 278 283 286 295 296 298 300 302 300 297 298 298 299 295 292 292 292 290
296 291 290 302 304 306 304 298 289 284 284 288 288 284 283 284 286 287 284 285 286 289 288 288 286 286 286 285 285 290 289 290 290 288 290 292 293 287 298 297 298 296 299 298 295 296 289 289 286 287 288 290 294 300 300 298 297 295 294 292 294 291 287 286 284 287 281 282 279 277 282 283 287 289 298 299 301 301 297 296 297 297 297 294 294 293 290 291
291 284 287 302 305 305 297 285 285 289 286 284 284 286 283 293 288 286 285 284 286 285 285 287 286 286 287 287 287 289 289 288 290 289 290 289 295 294 297 301 299 300 297 293 295 299 295 288 289 286 288 292 295 293 292 299 299 296 297 294 297 292 290 286 283 283 283 285 280 277 279 285 290 288 292 295 296 295 293 292 294 294 292 292 293 292 291 290
289 285 299 304 306 302 292 285 288 286 285 287 290 287 289 288 287 285 287 286 287 284 285 286 285 286 284 286 288 288 290 287 290 288 291 292 294 297 298 300 301 299 299 296 299 294 296 289 288 286 289 291 293 294 296 296 299 294 295 294 295 293 294 292 290 286 287 283 285 284 281 287 290 287 290 290 288 287 287 287 290 290 290 291 291 291 291 291
290 289 293 302 304 300 290 280 280 284 286 287 288 285 287 286 288 284 285 285 285 285 285 284 281 284 285 286 289 287 291 285 290 290 289 293 291 298 299 300 301 298 297 296 294 299 292 289 291 285 284 286 289 292 292 292 294 292 293 295 297 298 297 290 284 283 285 287 288 287 282 288 293 286 286 286 287 289 291 288 287 289 290 290 289 289 289 289
291 291 291 295 301 297 286 288 286 285 286 285 285 284 286 286 286 288 287 285 285 283 284 284 286 284 284 286 286 288 291 288 285 291 291 292 291 295 300 301 301 299 300 301 299 302 291 290 290 284 281 279 280 281 284 287 291 294 296 295 296 296 294 291 289 285 285 288 288 287 287 288 288 287 288 289 289 291 288 286 284 286 288 288 288 288 288 287
288 282 285 287 293 293 292 291 289 287 285 284 284 285 288 285 285 285 288 284 285 284 283 284 285 287 284 285 284 284 286 285 286 285 290 287 290 294 300 301 301 300 299 299 299 299 287 292 293 291 288 286 289 291 295 296 292 289 291 294 294 296 297 295 291 288 286 288 287 290 292 285 288 287 287 290 288 291 292 290 290 288 287 286 285 286 286 287
289 284 283 281 289 289 288 289 288 288 285 288 283 286 285 286 286 286 286 282 285 284 283 284 284 287 283 282 282 284 288 287 286 290 290 290 290 294 300 301 301 301 298 298 299 296 287 289 292 293 292 293 291 292 296 297 293 293 292 292 294 294 294 292 289 288 293 289 285 291 291 285 288 287 288 289 289 288 288 288 288 287 286 287 287 285 287 285
283 283 289 289 284 283 284 285 289 288 288 288 285 288 286 285 286 284 285 285 285 285 284 284 282 283 287 288 284 284 282 285 284 286 291 290 292 294 296 300 299 299 298 299 300 297 292 289 293 293 291 292 288 293 295 296 295 294 294 294 293 294 293 290 291 294 293 288 287 292 291 289 291 288 289 290 290 292 292 292 291 289 287 286 285 285 286 286
285 283 284 286 282 287 288 288 289 288 287 287 286 288 286 286 285 286 284 285 286 284 284 281 283 285 286 290 290 283 285 284 285 283 287 288 291 292 290 293 299 299 299 298 297 296 295 290 292 293 291 292 289 290 294 294 294 294 293 293 294 294 294 294 294 295 294 292 294 294 291 293 296 295 292 292 292 293 291 289 287 289 289 289 287 287 287 287
283 284 282 285 286 287 289 289 289 288 285 289 285 286 287 286 285 284 286 286 283 285 285 284 283 285 288 288 291 286 286 290 289 287 286 292 289 291 293 293 292 296 299 296 295 296 294 289 294 291 289 289 291 289 291 294 293 291 293 293 294 294 294 295 295 295 294 294 294 294 291 291 297 297 297 295 291 291 289 290 290 289 289 289 291 291 291 290
287 287 290 287 285 286 289 288 287 287 285 287 286 287 287 287 285 288 284 286 288 285 284 286 285 285 286 285 286 289 292 292 290 289 290 294 291 292 291 290 296 292 295 293 293 292 294 289 291 289 287 287 290 289 289 290 291 291 290 291 292 292 290 293 292 295 293 292 293 293 291 291 295 294 295 297 295 297 297 292 292 293 292 291 291 293 293 293
287 289 290 291 284 289 286 288 288 287 283 286 288 287 287 287 288 288 283 286 285 285 286 286 286 286 284 285 287 288 289 291 291 292 293 293 293 291 292 292 293 295 293 293 293 291 293 290 288 288 286 286 290 290 288 287 287 286 287 291 293 294 295 296 297 297 296 296 293 290 291 298 294 294 295 296 297 298 301 298 295 295 294 293 294 295 295 293
Wind_Speed
27 30 27 27 26 26 25 25 25 24 23 22 22 20 18 17 15 14 13 14 15 14 11 12 11 10 9 4 4 8 8 4 4 4 7 4 5 6 3 1 7 5 6 3 3 3 1 2 2 1 1 2 2 2 2 1 0 1 4 3 5 4 6 6 7 9 1 3 4 6 9 7 4 2 2 2 5 3 0 2 4 2 5 3 3 2 5 8
26 29 27 26 27 27 26 25 24 24 23 22 22 21 19 18 16 15 14 12 12 13 14 11 12 11 9 9 8 7 6 2 3 7 14 4 8 7 6 8 2 3 4 2 3 0 4 4 4 2 3 4 2 2 1 2 1 3 1 3 10 5 5 9 7 7 4 3 4 5 5 6 7 10 4 3 1 1 1 3 0 4 6 1 2 5 9 11
24 27 27 27 27 27 27 27 25 24 23 22 22 21 19 16 15 13 12 11 11 12 13 12 11 12 11 10 9 8 2 2 7 16 11 13 11 10 9 8 5 3 4 4 3 6 3 2 3 5 0 3 1 3 1 3 3 3 5 6 7 8 3 7 6 8 4 4 5 6 4 3 2 5 3 3 4 1 7 5 3 5 9 9 2 6 9 11
27 29 29 28 26 28 27 26 26 25 23 22 22 21 18 15 14 13 12 11 11 11 11 12 11 11 11 13 9 6 5 5 11 4 3 16 17 17 12 11 11 5 4 6 7 7 5 2 5 5 2 3 1 0 4 3 4 2 2 7 5 7 3 5 9 6 6 4 4 4 2 3 2 4 5 5 6 5 7 8 10 13 13 9 7 8 9 12
29 28 28 28 24 26 28 27 26 25 24 23 22 21 18 16 14 13 13 12 11 11 11 12 12 13 11 12 13 9 8 2 8 2 3 17 22 19 17 15 10 6 4 7 8 1 5 2 3 3 2 5 0 1 4 3 2 5 8 3 4 3 2 2 9 4 5 1 6 4 9 8 3 1 4 11 8 8 10 11 10 8 7 10 11 12 9 11
30 27 27 28 25 26 27 28 27 25 24 23 22 21 19 17 15 13 13 12 11 11 12 13 13 11 12 13 10 6 11 15 2 0 3 11 17 20 18 15 12 7 7 8 6 4 5 3 4 4 2 3 6 8 2 4 3 6 3 2 5 5 3 1 4 4 7 3 6 7 5 5 6 2 4 8 12 4 5 2 10 10 8 8 8 10 11 10
28 27 28 29 27 27 25 28 26 26 24 24 23 22 20 17 15 13 13 13 11 11 12 12 13 13 12 13 10 9 14 5 1 7 10 8 12 16 19 16 14 7 7 9 8 8 4 2 5 5 3 4 5 8 4 4 1 2 7 3 6 3 2 3 3 5 5 8 7 4 3 5 4 5 2 6 7 3 3 1 2 4 6 10 11 12 15 16
26 27 27 27 25 25 26 24 25 24 24 24 23 22 20 17 15 14 13 13 11 11 12 13 13 13 10 7 9 9 12 17 8 5 21 16 8 11 12 10 11 8 8 11 13 10 8 7 10 3 5 10 4 7 2 4 0 6 4 3 0 2 0 1 4 3 3 3 0 4 6 5 10 5 5 8 11 5 5 1 2 6 7 8 10 13 12 12
28 28 26 22 22 23 24 26 25 23 23 24 23 22 20 17 15 14 14 13 12 11 13 13 15 14 12 6 8 9 18 12 11 13 23 19 14 11 12 7 6 9 6 5 4 8 7 4 5 8 6 8 4 10 3 8 6 4 6 3 2 2 2 2 4 2 4 2 2 5 5 1 5 0 4 10 6 6 2 4 6 6 7 9 11 13 13 13
29 25 23 24 25 22 23 26 25 23 23 25 23 21 20 17 15 14 14 14 13 12 12 13 15 17 10 7 9 13 12 9 9 13 19 22 18 15 10 10 11 7 6 5 6 8 9 1 3 4 1 2 5 5 5 7 5 6 5 4 6 2 3 2 3 3 3 2 3 6 4 2 1 2 7 2 5 6 5 5 4 7 9 10 9 9 10 11
29 26 27 26 26 27 27 26 26 22 23 24 22 21 20 17 15 15 15 14 13 12 12 13 14 15 10 11 12 18 3 16 13 10 17 18 18 15 12 12 11 8 8 3 4 4 3 6 7 3 2 5 6 1 6 4 4 6 8 5 4 2 1 1 2 2 1 1 4 3 3 0 1 1 7 1 2 6 8 6 6 7 8 9 9 9 9 10
31 29 30 30 27 27 27 24 24 24 23 24 23 21 19 16 15 15 15 14 14 12 12 13 16 8 6 10 14 7 3 2 8 8 12 16 13 14 15 14 13 9 8 5 4 1 3 4 9 7 4 2 4 3 4 3 3 4 9 6 2 2 1 2 4 3 2 2 5 3 1 4 3 8 6 6 4 4 5 8 6 8 7 7 8 7 8 11
31 31 30 30 28 25 26 27 24 22 22 23 21 19 18 16 14 14 14 13 13 12 12 13 11 5 5 12 13 3 3 1 8 12 8 8 9 10 13 14 12 13 11 8 6 6 5 1 3 6 5 5 6 5 1 6 3 6 2 5 2 0 3 6 1 1 3 1 5 1 6 11 11 10 7 5 7 4 3 5 8 7 7 7 7 8 9 7
35 29 27 28 26 26 26 25 24 25 24 23 21 19 18 16 14 14 14 10 11 11 11 13 6 5 6 7 3 2 0 4 10 11 9 12 14 5 6 3 8 8 8 6 5 8 8 4 2 3 4 5 3 1 5 3 1 7 2 2 4 6 5 2 3 5 5 1 4 1 7 7 2 9 12 8 8 9 8 9 8 8 8 7 8 8 10 10
36 29 27 27 25 23 22 23 23 23 22 22 20 18 17 16 14 14 13 10 10 10 10 9 6 5 10 6 2 8 4 6 11 13 13 13 12 7 8 8 7 8 8 6 4 4 4 5 2 1 2 1 1 2 4 2 2 3 7 6 1 6 4 4 1 8 10 0 1 3 6 10 3 2 9 3 4 5 9 9 9 8 8 8 8 9 9 11
32 29 28 28 27 28 24 24 22 25 22 22 19 17 15 14 13 13 13 7 9 9 5 6 8 9 4 5 3 4 3 13 16 16 12 15 14 10 11 8 9 10 10 4 4 4 4 4 3 3 1 0 4 4 5 4 1 1 8 3 6 3 5 2 2 4 2 3 1 7 8 2 2 7 3 2 5 6 9 9 8 9 10 9 8 8 8 7
34 33 32 31 28 27 27 25 25 22 20 20 17 15 15 13 12 12 13 9 4 4 6 3 3 7 8 2 2 7 7 4 7 5 8 11 14 14 15 12 6 9 8 7 6 6 3 5 2 0 1 2 3 4 7 8 4 6 1 4 3 8 4 4 3 3 3 3 6 5 8 10 2 1 1 1 6 6 7 10 10 10 9 9 7 7 8 8
36 35 33 28 27 26 26 26 27 23 21 19 15 15 13 14 14 12 8 9 6 2 3 3 3 4 11 3 4 8 6 4 11 10 10 6 15 16 15 7 7 12 10 7 3 6 4 4 2 4 2 3 5 9 13 15 13 8 7 5 1 1 4 6 6 2 7 3 5 5 11 15 4 4 6 2 4 7 9 10 10 10 9 8 8 8 10 10
31 30 32 28 29 29 29 29 28 25 22 17 17 20 20 15 6 4 5 4 6 5 4 9 8 14 5 14 13 4 6 6 7 14 7 14 9 8 8 11 15 14 6 5 3 8 3 0 1 6 10 11 13 15 12 3 9 11 10 7 4 8 4 5 5 2 8 6 6 6 11 16 10 11 10 9 6 6 9 6 7 8 7 7 8 9 9 10
33 32 31 29 31 30 33 28 27 25 22 18 13 10 8 8 4 3 2 7 9 13 14 18 21 14 5 1 14 2 3 10 11 9 12 9 14 13 11 10 5 4 8 7 6 8 5 8 10 14 18 17 11 9 8 2 7 9 7 7 7 6 3 2 2 0 3 2 8 12 14 18 11 11 13 14 2 6 8 11 10 9 8 8 9 10 11 12
34 38 34 35 32 30 31 30 28 26 26 13 14 12 8 13 14 11 13 11 15 16 14 3 15 15 3 2 7 15 12 12 10 11 15 10 13 18 8 10 8 8 8 9 8 4 7 11 15 18 11 10 13 10 1 2 8 11 9 8 8 7 9 3 4 0 3 4 4 6 10 18 13 12 12 4 3 14 14 14 14 14 13 12 13 14 13 12
31 37 35 34 33 30 30 28 27 27 25 13 13 11 4 14 3 2 8 6 9 13 11 6 2 6 5 1 4 2 3 9 14 13 5 14 12 16 8 13 13 15 8 6 7 6 10 16 20 17 8 5 8 11 9 7 8 10 10 8 6 8 1 1 1 1 1 3 8 2 5 15 13 10 10 8 13 16 13 14 16 14 14 13 13 14 13 8
34 36 34 28 32 29 27 28 26 27 12 13 13 12 7 8 2 8 5 3 4 7 8 8 4 6 13 2 2 1 13 12 13 16 14 12 15 15 14 14 15 12 9 10 11 10 11 17 12 9 9 10 10 11 8 6 6 8 7 9 11 4 7 5 2 0 1 3 1 1 5 13 11 6 12 12 14 17 14 13 15 14 15 16 16 14 12 13
32 33 31 28 27 30 33 29 26 17 10 18 16 14 3 9 5 6 7 3 3 2 11 12 11 4 5 7 3 2 11 6 11 19 15 14 17 11 13 18 19 13 13 14 12 10 14 2 11 12 9 12 12 12 14 9 8 3 10 6 6 5 5 3 2 1 1 1 2 1 7 13 14 12 9 11 14 14 13 9 11 12 14 15 12 8 11 15
39 32 31 27 29 31 33 30 16 13 13 13 10 5 9 12 7 7 7 0 2 2 2 5 6 4 4 3 4 8 7 2 10 13 14 17 14 10 10 8 11 14 13 16 11 11 15 6 17 14 14 13 11 12 13 11 9 5 5 7 8 6 5 3 3 3 2 2 0 3 4 7 3 7 11 4 0 11 13 11 15 17 16 13 13 16 13 11
30 37 35 36 36 35 34 17 14 12 14 14 11 8 6 8 6 4 6 3 3 2 4 8 8 11 7 4 4 4 2 11 9 10 13 10 10 12 7 9 8 18 17 14 12 6 9 6 10 17 15 11 12 11 9 8 8 7 7 5 7 8 8 8 4 3 1 4 2 0 8 9 3 8 5 5 4 14 4 6 15 15 14 12 13 14 13 14
30 36 39 31 26 30 22 8 13 16 15 10 8 10 9 9 5 5 4 0 5 4 7 2 10 2 10 8 10 9 11 5 5 8 13 12 16 2 12 4 4 3 8 4 3 10 4 11 8 12 16 16 14 13 11 16 9 7 3 11 8 9 9 7 7 6 3 1 1 1 2 2 13 8 5 2 5 11 11 11 14 12 12 12 12 13 14 13
33 29 30 36 35 31 12 11 18 18 15 9 13 10 9 8 8 4 2 6 6 9 7 4 3 1 7 8 10 12 2 14 10 13 15 12 9 7 12 18 18 18 14 11 14 1 12 11 13 16 16 14 15 12 9 12 7 3 4 12 9 11 6 8 5 3 0 2 7 4 0 1 9 2 2 1 5 11 16 17 13 11 13 13 12 14 15 16
32 31 34 31 36 19 9 13 17 15 10 17 15 12 9 9 8 5 3 6 2 2 4 9 2 4 4 13 10 11 3 1 2 11 13 9 8 3 13 17 14 16 13 18 16 2 1 9 13 13 12 13 9 9 14 14 8 2 6 8 7 7 5 4 4 4 1 1 12 5 5 5 15 7 6 1 1 12 17 10 8 11 12 12 12 12 12 9
30 31 31 30 24 10 8 7 9 9 14 15 15 13 14 13 8 8 8 8 2 1 4 2 11 13 14 18 13 12 11 5 2 8 13 10 10 1 4 6 9 13 11 9 9 2 3 4 4 9 12 6 8 11 15 10 4 9 9 10 7 6 3 4 5 3 1 8 11 8 11 8 10 8 9 7 11 13 7 5 8 6 9 10 8 8 8 10
35 35 31 33 16 11 13 11 11 14 17 16 17 15 12 7 7 9 13 4 4 2 5 11 10 18 20 20 16 14 12 7 2 8 13 11 12 4 8 8 2 8 3 4 9 7 2 4 3 3 2 4 15 5 2 9 15 12 3 6 7 4 4 4 2 0 2 11 3 13 12 12 11 4 4 8 2 3 7 9 8 8 9 8 6 7 8 8
32 34 37 25 12 11 16 14 15 16 16 20 20 15 13 11 5 12 5 5 2 5 11 9 13 15 19 17 15 17 15 10 5 11 10 15 13 16 16 11 13 9 11 11 9 3 9 8 2 4 4 18 11 14 2 3 14 7 9 10 11 3 3 5 2 6 12 7 2 1 11 0 19 16 2 4 7 8 8 8 9 9 8 7 7 8 7 7
35 38 37 15 15 10 7 13 13 15 19 20 16 11 10 10 14 10 6 5 3 9 6 13 15 17 20 18 13 12 10 15 11 12 9 6 15 16 21 18 23 16 16 17 12 10 6 6 5 4 1 7 17 14 7 7 8 13 14 12 11 7 7 10 8 2 5 1 2 5 1 8 2 9 14 20 20 15 11 12 9 7 8 9 9 7 5 6
26 34 21 13 12 8 14 16 15 22 21 15 14 12 6 11 9 16 14 9 4 0 13 9 13 15 21 18 13 14 10 9 14 13 12 5 11 14 12 10 19 4 5 8 12 14 10 8 12 8 8 5 16 16 19 14 14 14 7 14 10 8 5 9 5 10 6 2 0 3 5 8 9 7 1 7 7 8 8 4 6 8 9 8 6 7 8 8
32 23 13 11 9 10 16 15 18 21 16 15 12 12 15 11 7 15 12 4 3 2 7 11 15 15 14 12 11 15 13 11 14 13 12 12 10 11 15 14 16 8 6 14 4 3 15 5 4 17 1 14 17 15 15 14 9 7 6 4 7 11 6 6 3 3 3 2 1 3 8 2 6 6 6 7 7 10 8 8 4 9 7 5 8 10 11 10
25 11 11 9 12 11 15 14 17 19 17 14 11 12 15 13 10 8 10 5 2 5 12 12 12 15 11 11 6 13 8 1 15 14 11 15 9 10 11 12 18 19 16 15 9 7 4 11 5 13 4 10 13 12 8 19 14 7 8 13 8 3 8 6 2 0 1 2 8 5 7 7 6 15 19 16 11 12 8 7 6 9 6 3 8 11 11 10
10 12 10 13 12 11 14 15 14 15 13 13 13 12 13 8 4 6 7 17 5 11 13 15 11 12 13 11 10 17 9 2 11 10 9 12 11 10 11 7 10 13 14 11 3 1 16 5 5 13 10 6 0 8 12 12 3 10 9 8 5 3 5 4 5 2 1 6 7 8 15 6 4 13 3 8 18 17 14 6 5 6 5 6 11 10 10 10
12 10 11 14 13 12 13 16 16 11 10 13 13 13 7 10 3 4 4 8 2 5 8 11 5 13 12 13 12 15 12 15 9 12 3 17 3 14 10 9 10 10 9 1 10 4 6 4 3 4 8 3 2 5 5 1 4 12 13 12 14 4 7 1 2 7 2 8 6 4 2 4 12 15 1 2 8 7 8 7 3 6 8 9 10 11 10 8
10 10 7 11 12 15 13 17 14 14 12 13 12 16 4 6 1 5 3 11 4 6 11 8 4 6 8 14 13 15 16 15 13 9 9 7 6 16 17 11 12 13 9 3 6 4 2 5 1 1 6 5 5 7 11 7 2 3 8 9 2 6 7 9 9 1 2 9 3 7 3 11 10 12 6 12 6 8 7 2 7 9 8 6 6 8 8 6
11 8 6 11 14 14 15 16 13 12 10 15 15 10 6 11 4 4 2 7 5 8 3 8 5 8 10 11 17 17 16 20 17 11 7 6 7 11 20 15 14 14 13 6 2 6 7 2 7 2 0 7 9 7 11 15 13 5 9 8 2 2 1 3 1 8 7 7 6 5 7 7 5 10 10 13 9 13 10 5 9 9 10 8 8 9 6 5
6 5 5 14 16 16 17 14 11 12 12 8 8 6 5 8 4 1 0 1 2 3 5 6 7 10 8 10 10 10 11 17 13 11 7 6 12 7 11 16 15 20 15 6 1 6 3 3 9 4 3 10 7 11 15 17 11 10 12 14 16 14 7 12 10 2 3 2 7 5 18 3 4 3 14 15 13 13 5 4 8 11 11 6 7 7 6 7
10 7 5 16 18 22 19 15 6 9 8 13 12 6 2 4 8 4 2 2 5 3 4 4 1 4 8 9 9 12 8 11 12 10 7 7 8 7 12 21 19 22 18 13 13 11 6 3 8 10 7 11 7 0 1 4 7 5 8 8 9 4 5 5 10 6 1 6 3 3 6 11 5 5 6 6 5 6 5 2 8 9 7 8 9 8 7 7
8 3 6 22 22 22 16 11 10 12 10 12 3 1 1 2 5 4 7 1 3 1 2 3 6 5 3 5 9 9 14 8 16 14 9 10 9 9 5 19 16 20 19 11 8 0 4 5 8 2 4 3 2 2 7 5 10 2 1 2 8 11 13 13 11 4 8 3 7 5 10 8 4 5 7 5 4 4 5 4 8 8 8 10 10 9 8 8
7 5 10 16 21 17 15 14 16 14 11 4 8 4 2 3 6 3 6 4 4 3 4 4 3 2 4 1 5 12 13 7 11 14 10 8 3 5 11 16 19 14 17 11 13 12 8 5 11 7 6 2 4 4 2 4 2 5 8 9 13 14 14 2 5 3 5 12 9 11 16 15 4 1 4 6 3 4 9 5 7 8 8 8 8 8 7 7
6 3 3 11 16 15 16 11 14 15 16 14 12 10 5 1 3 7 8 6 1 4 3 2 2 4 0 1 5 5 10 9 4 12 6 6 4 3 12 18 21 14 14 11 12 9 1 6 14 12 11 11 10 11 12 11 17 11 14 16 16 20 20 11 14 7 13 11 12 10 18 5 2 3 5 3 3 6 5 5 4 7 8 9 7 7 7 6
7 9 2 3 13 11 8 3 5 11 13 14 13 11 12 5 1 3 7 3 3 2 2 3 0 0 3 1 4 6 8 1 4 4 12 4 3 1 7 17 22 15 17 13 13 11 4 7 10 11 15 18 18 11 8 13 6 6 8 16 18 18 18 15 7 9 16 12 11 19 20 2 1 1 4 6 3 6 5 3 4 5 7 8 8 8 7 6
4 6 8 8 11 12 11 6 8 7 11 12 11 9 14 9 3 1 2 3 4 5 3 2 3 5 2 4 2 6 10 7 2 8 14 8 1 2 12 18 18 18 18 11 12 7 2 5 15 16 15 8 6 3 11 17 19 21 20 19 18 18 17 17 15 19 20 12 14 16 9 3 6 4 7 5 6 3 6 6 6 7 7 6 4 4 6 6
7 3 8 2 4 18 17 13 12 12 7 14 9 9 14 11 9 8 2 2 3 1 6 2 1 2 4 14 3 4 5 6 2 6 7 5 4 3 6 10 14 17 18 7 9 11 9 11 14 16 19 8 5 3 10 13 14 17 20 21 20 18 17 18 22 26 14 10 19 26 9 9 9 6 8 8 6 7 6 9 10 5 2 3 3 4 3 4
2 2 2 3 2 9 24 22 21 15 14 17 4 13 15 15 13 7 4 4 3 2 2 5 6 6 4 6 10 4 8 8 8 2 6 4 7 7 6 3 9 9 15 10 5 2 5 11 8 12 15 12 3 1 8 16 14 12 13 14 16 18 21 24 26 27 20 18 25 18 8 20 17 13 10 10 9 7 5 1 1 1 4 4 3 4 4 4
6 8 5 2 5 3 13 13 16 15 14 19 11 13 16 19 17 5 1 8 7 6 1 4 7 6 6 5 10 10 8 13 14 12 4 12 7 6 10 8 7 7 10 12 7 3 9 9 11 7 10 11 12 3 2 12 13 13 14 14 15 15 17 20 22 21 15 19 25 21 13 18 13 10 10 4 2 0 2 4 4 4 3 4 4 5 6 5
2 1 4 9 6 3 10 14 14 14 10 12 12 11 11 17 18 14 4 2 14 11 8 17 10 7 2 2 4 11 12 11 1 3 5 12 13 4 6 3 5 13 11 7 4 4 10 6 4 3 7 8 10 11 5 7 11 14 11 13 15 17 18 20 21 24 20 26 31 24 17 19 10 8 5 8 5 7 14 9 6 5 6 6 5 7 8 6
2 1 3 7 4 7 13 13 13 12 11 11 12 13 12 19 11 12 4 1 1 3 7 8 8 8 1 3 9 4 1 5 6 6 9 8 7 4 4 6 2 13 14 11 5 8 11 7 7 7 9 10 13 13 9 4 3 7 13 18 23 25 26 27 28 27 21 25 20 15 24 25 3 7 11 14 15 15 21 15 12 10 8 8 9 9 7 5
Wind_Direction
225 223 220 218 212 208 206 204 206 207 207 208 214 222 220 215 209 206 203 206 213 213 214 204 198 182 165 159 264 154 141 120 129 170 209 210 138 229 288 247 43 51 75 57 9 117 168 125 204 342 224 201 267 188 210 61 27 77 179 138 235 185 163 200 176 191 224 143 211 196 204 151 180 167 173 104 40 62 25 231 301 294 246 222 271 305 131 143
222 228 218 220 216 211 204 204 204 206 206 207 210 219 221 216 209 206 204 204 207 205 210 206 186 174 172 169 212 172 134 123 234 237 228 140 186 184 231 269 212 72 77 43 73 57 148 195 198 116 164 187 358 199 97 202 94 154 107 139 235 162 234 169 198 192 129 243 175 198 197 183 206 142 203 142 255 109 139 267 1 306 288 345 27 127 139 151
227 227 222 218 216 215 207 205 203 202 204 205 207 214 220 214 208 201 200 200 199 201 203 204 187 183 178 180 194 147 93 3 321 259 248 196 202 195 210 195 190 169 193 161 141 88 46 272 201 134 77 170 12 188 177 199 146 219 143 217 235 204 219 210 179 191 210 135 138 171 217 188 210 149 139 199 161 121 196 201 261 245 241 216 232 157 156 162
213 223 230 222 216 216 211 205 204 202 201 202 205 211 216 211 206 199 193 196 196 193 196 196 189 180 173 179 169 127 86 28 258 259 142 186 186 199 194 191 199 169 100 75 79 57 306 289 133 151 125 157 252 2 166 225 157 195 119 214 225 197 153 236 186 218 197 163 156 160 80 184 230 190 159 159 121 242 255 230 186 208 219 204 181 170 166 169
211 211 219 224 216 221 216 205 200 200 200 201 202 207 213 211 205 196 191 192 193 189 190 188 186 179 172 175 179 136 121 118 255 166 264 189 180 186 180 184 179 157 124 118 95 34 348 320 145 148 127 203 217 155 247 195 215 113 212 207 168 121 196 232 194 151 145 216 119 139 144 214 99 75 161 156 180 214 209 224 213 218 207 162 171 184 172 177
212 208 211 217 211 217 219 212 202 198 199 198 198 203 209 210 205 194 188 188 193 184 186 190 186 186 177 177 175 163 140 208 100 179 307 172 173 176 170 160 154 142 120 122 131 93 22 352 162 171 183 131 196 176 256 182 160 186 259 213 191 195 159 202 188 192 140 135 143 158 209 101 162 192 192 178 201 226 214 212 196 210 187 173 148 157 178 186
205 206 208 212 209 212 215 217 207 201 197 196 197 201 205 206 205 192 186 188 189 183 186 184 173 185 191 182 177 179 199 225 213 219 104 157 170 170 170 169 157 130 131 125 145 142 146 222 190 201 151 186 223 195 211 162 316 166 212 154 216 188 187 181 182 139 178 140 199 187 113 156 158 191 171 194 228 159 176 249 235 212 145 146 152 175 181 189
203 205 206 206 205 207 213 218 210 201 199 199 195 197 200 203 200 190 186 184 188 186 180 177 177 177 188 156 168 206 190 219 190 180 111 102 134 152 136 121 140 140 156 157 160 166 132 196 194 148 197 186 200 185 177 120 79 199 252 188 46 123 277 221 128 146 160 197 83 125 146 219 185 187 116 238 231 217 225 224 169 138 141 165 169 180 190 196
207 204 200 197 204 203 206 212 209 197 198 198 196 195 198 199 197 187 184 183 187 187 185 177 175 172 191 166 192 191 224 209 157 138 118 119 120 115 111 101 123 155 157 144 146 116 121 243 210 193 217 193 218 177 217 158 257 196 218 130 122 163 126 186 93 122 163 142 149 122 212 258 240 352 241 237 243 217 180 122 137 139 157 183 191 188 187 194
200 193 195 195 197 201 200 208 210 199 197 200 197 194 196 197 194 185 182 184 188 186 184 182 165 166 183 176 176 212 239 115 136 143 127 130 137 133 123 141 145 134 131 128 140 151 173 103 223 322 88 238 156 199 176 196 221 175 147 154 151 166 135 252 187 193 182 168 183 172 209 240 347 138 252 266 212 137 119 149 181 159 185 199 200 199 201 194
204 193 194 196 195 196 203 202 205 197 201 197 198 194 193 193 193 184 182 185 187 187 185 180 169 151 189 194 183 213 66 151 176 139 132 134 132 135 137 138 138 109 77 70 206 187 59 3 350 300 310 231 154 247 158 221 114 131 139 102 65 21 107 113 103 178 136 214 182 169 212 326 293 78 231 214 180 179 154 182 188 198 198 201 207 204 205 209
199 193 193 195 193 195 197 199 203 194 194 197 196 194 191 189 190 182 182 183 188 187 184 181 169 161 195 204 210 211 224 315 171 131 136 136 140 137 139 137 131 136 124 137 215 266 25 13 20 338 206 142 189 86 244 198 108 156 141 169 269 8 270 233 177 209 176 237 163 163 336 258 183 217 237 237 149 174 163 184 205 212 213 208 213 213 208 214
204 193 189 191 190 191 194 195 195 191 193 191 193 192 188 187 186 181 179 181 189 187 184 179 169 167 179 220 217 180 279 171 165 147 128 107 100 118 138 140 143 150 161 172 202 158 125 79 24 356 321 315 169 156 192 93 117 104 49 133 69 87 293 241 98 18 141 240 160 197 241 228 220 221 252 211 146 115 147 213 215 220 216 213 207 215 225 218
206 195 188 188 188 190 193 195 191 189 192 191 188 188 187 182 182 180 176 176 182 190 183 182 141 139 204 242 50 279 22 173 163 154 142 129 116 122 114 100 130 132 149 165 140 139 132 124 60 253 271 239 226 261 113 32 13 153 186 118 185 149 244 283 190 158 159 185 185 123 241 243 279 218 220 217 163 167 203 218 223 221 224 216 211 216 224 226
205 194 189 186 182 186 184 187 197 191 189 188 185 184 180 179 179 181 175 169 179 182 187 152 160 137 217 250 42 262 258 143 168 183 169 153 128 119 131 126 106 108 104 101 116 121 148 111 87 7 287 276 355 95 89 68 10 156 118 222 48 184 278 293 212 167 184 266 183 127 257 259 205 229 219 256 182 184 218 218 228 226 226 221 213 219 227 232
198 189 189 187 176 181 182 183 190 193 186 180 182 175 171 169 175 178 174 158 169 175 122 153 194 202 299 246 232 103 182 175 192 181 185 168 166 171 136 118 111 103 107 83 84 97 127 136 175 192 353 323 184 172 125 88 220 322 199 112 194 140 230 352 214 236 261 111 301 190 242 37 272 239 317 303 179 195 222 235 234 233 232 230 222 222 231 247
200 189 185 185 176 175 180 180 189 189 182 179 169 159 158 167 166 174 176 155 169 112 141 166 157 178 229 16 356 167 189 207 107 153 165 182 158 136 117 113 110 112 99 100 103 111 140 156 238 19 196 207 180 168 146 198 181 201 174 149 170 179 188 229 306 252 226 163 200 245 235 233 177 270 276 329 160 163 221 244 247 242 236 229 227 224 228 230
201 194 184 174 171 174 177 179 180 180 180 176 154 145 155 157 167 166 135 77 86 98 121 8 101 103 255 186 210 188 183 141 159 159 155 156 136 142 133 118 114 123 122 101 109 144 182 176 204 193 125 209 184 197 192 202 187 158 164 145 155 88 206 188 177 258 151 257 200 225 243 247 231 273 279 250 159 179 218 223 234 242 242 242 234 228 224 224
193 190 186 174 173 175 177 180 176 171 176 160 140 126 106 77 43 26 114 150 122 150 167 200 171 200 189 196 218 215 170 162 124 142 144 137 143 116 85 107 128 128 140 135 186 152 188 124 186 171 209 207 208 202 201 89 148 165 158 167 145 185 202 194 237 265 173 180 231 217 232 250 225 253 265 255 184 196 234 251 265 257 249 247 242 238 228 230
192 185 177 177 174 175 179 173 170 169 148 122 125 108 113 133 104 164 214 173 205 202 202 180 191 194 45 30 190 111 102 146 145 177 151 149 131 121 113 119 118 96 139 179 134 184 153 191 201 203 203 206 204 212 203 260 142 136 142 156 195 188 253 266 259 245 164 89 227 226 239 252 242 231 237 245 221 223 244 250 243 246 247 240 241 238 233 228
196 186 175 178 174 174 180 172 165 165 147 135 125 135 162 164 154 185 178 206 205 213 218 199 205 201 181 71 133 146 152 179 166 173 167 155 140 133 171 129 148 178 191 171 151 119 181 189 211 222 208 188 200 201 137 136 147 148 153 164 202 186 224 217 176 263 239 169 276 244 256 262 251 247 248 262 268 254 234 240 244 244 242 242 240 244 238 237
196 189 177 171 171 173 172 166 164 164 146 145 148 165 166 185 151 112 125 187 239 233 234 247 70 217 280 102 5 106 76 164 176 162 174 154 160 154 194 162 164 203 161 140 134 172 198 206 213 207 204 194 177 189 197 158 160 162 168 175 179 226 202 318 251 312 206 128 257 24 269 269 260 244 252 234 237 248 238 226 238 237 241 240 238 241 247 239
190 185 177 163 168 170 168 157 165 161 146 153 168 181 189 174 64 130 118 91 225 216 227 222 247 177 210 190 127 57 173 191 164 165 177 165 172 177 159 161 175 184 165 160 183 182 208 223 207 162 176 174 183 186 173 165 164 163 146 164 206 168 164 253 290 50 189 163 230 53 320 279 279 228 238 227 224 243 241 229 234 228 234 235 233 228 231 235
185 179 174 164 161 165 165 161 158 153 161 167 178 182 111 144 121 134 123 158 205 227 202 210 210 221 208 196 147 152 190 189 169 173 172 170 172 151 160 169 169 176 184 169 188 205 219 251 152 177 168 176 184 180 182 173 192 204 168 160 145 180 218 143 211 166 312 358 77 299 295 281 266 267 253 238 231 249 252 241 244 243 235 238 244 242 223 231
188 179 173 164 162 161 164 153 159 170 159 166 185 155 142 157 126 141 102 163 330 291 170 201 168 250 222 27 154 164 219 292 210 163 178 169 162 149 190 163 158 189 174 169 186 209 232 212 161 179 176 184 177 188 195 182 190 186 238 177 164 150 125 79 96 103 35 306 9 165 301 257 276 243 248 261 318 243 242 230 239 237 236 229 235 236 233 234
179 176 172 171 166 162 155 158 175 151 153 183 173 154 130 128 116 119 99 97 245 227 96 210 126 227 121 225 118 164 134 228 185 180 170 185 169 170 145 180 164 180 178 170 187 219 226 198 203 174 170 176 184 194 194 173 190 181 226 160 149 147 133 132 173 106 263 217 255 106 214 280 273 269 247 240 238 252 263 199 241 240 242 230 229 235 234 229
175 176 172 163 160 151 155 185 146 143 166 191 141 133 139 138 129 91 109 193 250 168 161 115 159 247 169 167 157 120 211 207 116 164 189 178 173 183 149 138 132 149 164 139 174 218 140 179 187 172 172 178 184 195 186 180 169 215 167 135 136 125 137 172 155 181 223 300 254 115 151 260 289 262 225 161 216 262 270 244 243 243 242 233 227 230 232 232
170 165 170 165 164 161 171 137 147 169 183 128 130 126 102 121 95 59 67 177 244 118 182 164 226 0 187 154 161 183 82 135 160 190 186 179 166 181 177 170 173 167 161 161 209 93 179 184 182 179 177 181 196 189 156 172 164 217 178 138 148 151 163 158 136 135 213 61 269 140 31 306 250 275 311 114 248 258 257 250 241 239 241 240 230 227 226 227
166 165 167 165 164 144 125 147 166 160 119 126 127 127 110 88 98 126 175 205 115 130 98 143 104 114 126 136 173 208 174 294 283 159 172 177 222 154 184 184 173 165 165 178 187 157 30 196 184 181 177 194 178 140 151 171 144 281 123 76 86 79 73 117 105 116 4 198 247 178 178 224 276 236 202 22 206 253 248 253 260 241 237 232 229 230 233 238
163 166 166 157 155 134 112 111 136 131 125 112 122 119 113 104 112 180 182 235 100 221 165 146 163 167 156 160 184 193 210 170 208 154 166 172 189 8 353 132 144 148 167 187 200 166 162 290 235 186 192 169 122 149 165 159 123 153 125 93 60 51 69 34 74 99 45 243 242 156 187 190 285 253 197 156 221 233 270 252 239 242 239 243 235 228 226 227
166 167 161 159 159 162 131 148 150 138 127 129 122 117 116 133 178 170 206 208 68 163 108 160 158 152 166 161 186 187 197 185 165 189 165 166 168 130 124 95 83 112 120 176 214 235 324 351 178 256 182 122 131 101 37 137 144 144 113 124 89 13 21 37 4 59 219 258 120 179 170 185 214 292 172 201 203 189 197 239 251 255 255 255 247 239 236 237
165 164 162 163 152 143 160 158 149 135 130 127 117 124 139 145 191 203 176 86 136 188 168 139 158 167 162 178 183 173 186 189 185 186 206 170 160 164 178 165 147 153 175 175 210 175 241 230 279 259 204 145 145 135 51 140 157 156 124 129 157 201 142 222 129 218 219 243 288 46 151 235 232 246 217 269 259 250 211 217 231 242 258 257 265 254 240 232
164 163 158 155 141 156 99 121 132 130 131 129 126 143 154 174 187 192 225 150 265 153 192 154 168 164 170 174 192 170 172 197 164 198 179 234 164 182 175 170 173 178 176 180 171 163 238 214 221 228 290 202 150 155 141 157 217 156 168 158 164 170 176 219 204 278 317 284 316 131 23 258 26 279 243 253 252 244 235 225 234 228 238 253 253 260 265 260
148 155 156 158 150 128 133 136 136 137 136 136 131 150 183 186 204 181 190 182 182 355 146 157 158 167 170 182 184 158 181 211 182 197 173 210 185 169 178 176 169 133 46 145 181 163 183 185 221 182 197 199 184 169 169 171 180 195 162 173 183 173 175 211 182 208 221 201 233 256 125 234 139 248 290 245 263 273 278 239 225 229 240 251 274 298 280 266
155 156 140 140 117 139 133 136 145 140 133 138 141 168 179 200 190 183 199 205 301 165 151 155 153 161 184 190 173 179 171 188 193 185 193 201 202 179 166 170 183 145 132 136 219 148 210 233 212 181 270 189 189 179 171 146 153 190 160 113 165 204 135 195 193 180 177 175 108 208 210 187 193 272 270 229 257 281 262 262 230 256 248 265 288 273 265 259
148 153 140 137 148 167 138 145 143 137 142 147 155 175 196 189 188 166 200 147 151 145 154 152 152 172 174 183 163 178 211 143 187 180 195 197 207 189 169 171 181 174 162 172 150 160 158 224 183 168 197 186 197 160 177 148 187 177 139 195 186 106 101 93 48 326 90 47 239 153 272 274 304 288 256 261 262 259 264 258 249 255 255 229 254 257 250 249
143 135 157 149 151 159 142 143 146 139 146 159 173 191 194 203 194 171 165 180 193 149 153 160 179 168 176 180 170 178 182 114 194 194 197 179 208 198 172 186 190 181 189 147 155 296 167 176 172 167 186 222 261 183 173 190 98 130 182 187 93 105 100 135 214 1 85 225 260 160 223 241 79 267 353 223 221 233 246 248 266 269 267 255 246 251 254 250
142 153 144 156 153 145 142 141 136 143 147 168 192 203 193 201 202 158 117 167 62 170 155 178 168 175 172 170 184 174 171 190 172 186 234 180 256 166 169 172 197 202 184 266 150 210 119 82 208 232 179 139 65 160 171 357 304 175 178 158 150 201 219 254 136 236 196 237 259 279 306 267 192 231 184 75 209 232 250 286 288 273 257 245 261 263 260 260
135 144 136 165 143 146 148 144 142 153 166 179 196 207 172 215 135 186 206 175 139 156 173 199 130 206 160 180 176 174 164 196 175 197 185 207 193 177 175 158 189 201 197 166 144 156 173 116 105 322 153 164 154 174 184 174 319 19 90 160 173 119 200 169 197 105 108 255 343 282 67 238 187 236 205 255 223 223 230 252 239 238 248 247 256 261 264 275
135 142 173 151 150 142 144 142 151 158 180 188 190 210 151 197 190 234 316 175 170 156 241 177 223 167 178 189 173 177 182 189 184 192 209 173 200 167 180 172 167 190 189 205 132 176 170 121 158 145 334 145 193 183 192 178 169 146 160 167 194 185 316 104 214 184 166 223 226 278 278 251 228 203 205 225 247 273 263 238 257 268 273 254 249 260 265 263
136 126 134 155 150 145 144 146 149 177 182 210 211 201 180 196 147 223 9 59 113 359 156 176 173 186 171 173 200 169 181 194 188 195 188 200 187 161 194 171 164 172 179 191 138 187 114 199 154 135 190 195 193 197 202 194 172 177 173 184 180 171 145 169 228 122 191 170 235 186 251 279 274 175 210 212 214 227 232 205 261 269 267 274 273 270 253 274
145 153 186 152 150 151 148 146 169 174 193 195 196 173 210 115 156 181 92 13 84 161 350 138 218 191 179 193 174 184 165 188 195 184 204 195 207 197 186 179 170 164 167 184 190 195 154 125 121 170 191 195 187 282 8 161 161 169 176 189 177 142 112 177 216 219 88 237 99 186 310 257 222 189 186 212 223 241 241 188 251 262 277 287 271 267 269 242
158 141 114 150 157 152 152 171 166 172 195 204 158 37 347 178 146 174 161 211 164 135 88 164 201 171 257 172 191 185 180 180 182 201 182 197 214 200 158 183 162 171 170 188 169 335 52 112 122 52 44 39 84 101 60 85 115 106 265 130 159 187 192 203 206 169 199 171 218 242 257 269 161 192 193 189 228 261 273 216 250 278 285 274 272 281 272 278
132 118 139 159 157 158 165 180 172 188 193 147 183 191 9 232 161 138 180 200 163 136 163 165 53 271 199 190 158 188 177 182 207 195 201 188 229 156 148 177 161 172 178 180 172 191 169 219 152 144 137 122 66 52 61 344 151 196 195 195 193 193 195 181 77 81 229 212 200 212 246 249 207 4 278 167 180 236 252 246 192 251 273 265 271 276 278 274
116 60 43 154 160 164 187 186 180 180 182 183 180 169 168 240 280 177 147 179 79 136 115 217 195 139 336 159 172 164 189 186 150 216 204 172 231 177 152 170 170 177 202 178 180 171 188 153 162 165 157 161 168 184 179 181 198 199 200 190 196 191 188 162 210 184 224 216 181 212 239 268 346 355 277 204 168 232 252 233 241 220 249 274 284 282 283 286
167 148 153 92 161 176 214 24 194 184 182 178 182 189 173 171 235 0 123 117 178 108 96 129 29 92 113 170 154 163 178 337 143 181 196 160 155 199 161 168 175 187 188 164 163 161 169 178 194 197 184 186 192 199 207 164 126 168 184 192 199 204 198 200 210 215 222 223 207 221 226 53 260 261 238 198 219 194 235 246 242 238 246 253 258 265 268 272
139 171 161 163 140 188 187 189 188 185 192 171 191 168 190 169 148 87 13 133 222 142 82 86 190 167 170 55 244 166 172 180 314 156 190 173 240 168 167 166 185 191 169 170 176 141 89 197 197 204 219 213 38 45 122 146 171 192 187 196 196 195 196 198 204 221 218 222 245 242 214 136 226 208 245 212 217 251 271 263 264 265 255 233 241 272 288 286
167 215 182 174 153 168 180 198 194 186 181 168 192 160 187 166 168 162 21 17 121 298 117 326 71 320 171 166 192 183 188 174 142 180 168 178 109 95 142 182 186 177 165 188 186 178 182 206 194 203 221 203 356 146 151 165 194 196 191 191 188 191 192 199 218 229 213 203 233 239 178 213 225 242 229 223 177 196 209 223 217 213 232 277 295 300 307 298
91 91 134 125 147 188 183 177 175 180 172 176 168 179 178 179 180 172 165 123 141 222 126 161 204 194 195 185 149 191 169 166 227 286 170 153 161 137 138 153 211 185 171 182 204 155 156 225 188 202 217 211 230 217 171 169 193 189 188 193 189 190 199 205 219 224 214 225 233 239 142 222 213 206 211 223 207 200 224 301 67 146 237 224 256 280 266 270
193 155 178 40 73 183 182 153 172 170 179 181 182 189 177 180 178 156 182 158 167 203 153 169 182 174 164 206 182 179 208 202 184 179 235 161 173 169 168 169 146 184 195 185 168 221 162 215 183 176 207 219 228 238 217 177 180 194 191 186 182 192 209 219 229 233 223 242 249 243 224 243 228 195 211 229 226 13 346 273 242 244 278 268 261 266 264 251
117 27 124 144 143 146 162 160 167 175 173 179 198 176 183 183 182 167 172 294 192 178 174 199 153 152 144 156 278 220 191 212 227 186 161 170 172 213 144 230 162 162 185 202 183 163 174 233 128 142 189 220 224 218 206 200 188 192 183 166 172 184 205 216 223 223 204 220 232 236 241 254 228 147 201 228 235 225 247 207 222 229 227 230 238 252 252 251
80 35 72 122 118 173 167 164 161 158 196 188 179 174 180 188 170 146 131 353 42 159 154 125 141 115 97 124 241 235 81 97 103 104 102 53 68 68 86 117 123 174 175 189 167 180 189 185 166 171 215 220 216 207 191 152 173 215 194 177 185 196 204 212 219 223 211 220 231 224 228 238 194 148 199 213 209 209 238 224 208 207 218 205 215 227 241 249